Location: Newark
(25.4800°N, 85.7200°E)
Time: 20:27:01
(UTC+00:00)

Transit 4A - Pass Details

Date: 28 August 2019
Orbit: 867 x 978 km, 66.8° (Epoch: 23 October)

Event Time Altitude Azimuth Distance (km) Brightness Sun altitude
Rises 09:58:31 0° 193° (SSW) 3,629 11.2 35.7°
Reaches altitude 10° 10:01:04 10° 190° (S) 2,696 10.6 35.1°
Maximum altitude 10:07:18 62° 110° (ESE) 1,084 8.5 33.7°
Drops below altitude 10° 10:13:35 10° 31° (NNE) 2,724 10.1 32.3°
Sets 10:16:11 0° 28° (NNE) 3,671 10.7 31.7°
